Binghamton, NY

11:09 AM EDT on October 20, 2019 (GMT -0400)
Binghamton Regional-Link

Weather History for KBGM - August, 2019

Change the Weather History Date:

Wednesday, August 21, 2019

  Actual Average Record
Temperature  
Mean Temperature 75 °F 67 °F  
Max Temperature 81 °F 76 °F 89 °F (1955)
Min Temperature 68 °F 58 °F 43 °F (1992)
Degree Days  
Heating Degree Days 0 1  
Month to date heating degree days 4 21  
Since 1 June heating degree days 98 136  
Since 1 July heating degree days 4 45  
Cooling Degree Days 10 3  
Month to date cooling degree days 99 82  
Year to date cooling degree days 359 317  
Since 1 June cooling degree days 352 294  
Growing Degree Days 24 (Base 50)    
Moisture  
Dew Point 65 °F    
Average Humidity 74    
Maximum Humidity 90    
Minimum Humidity 58    
Precipitation  
Precipitation 0.01 in 0.12 in 1.20 in (2016)
Month to date precipitation 3.19 2.36  
Year to date precipitation 28.57 25.12  
Snow  
Snow 0.00 in 0.00 in 0.00 in (2002)
Month to date snowfall 0.0 0.0  
Since 1 June snowfall 0.0 0.0  
Since 1 July snowfall 0.0 0.0  
Snow Depth 0.00 in    
Sea Level Pressure  
Sea Level Pressure 29.92 in    
Wind  
Wind Speed 7 mph (SSW)    
Max Wind Speed 17 mph    
Max Gust Speed 23 mph    
Visibility 10 miles    
Events Rain , Thunderstorm    
T = Trace of Precipitation, MM = Missing Value Source: NWS Daily Summary

Daily Weather History Graph

Daily Weather History Graph

Search for Another Location

Airport or City:

Astronomy

Aug. 21, 2019 Rise Set
Actual Time 6:17 AM EDT 7:55 PM EDT
Civil Twilight 5:47 AM EDT 8:25 PM EDT
Nautical Twilight 5:11 AM EDT 9:01 PM EDT
Astronomical Twilight 4:33 AM EDT 9:39 PM EDT
Moon 11:05 PM EDT (8/21) 11:57 AM EDT (8/21)
Length of Visible Light 14h 37m
Length of Day
13h 38m
Waning Gibbous, 69% of the Moon is Illuminated
Aug 21
Waning Gibbous
Aug 23
Last Quarter
Aug 30
New
Sep 5
First Quarter
Sep 14
Full

Hourly Weather History & Observations

Time (EDT) Temp. Heat Index Dew Point Humidity Pressure Visibility Wind Dir Wind Speed Gust Speed Precip Events Conditions
12:53 AM 69.1 °F - 63.0 °F 81% 30.01 in 10.0 mi SSE 5.8 mph - N/A   Scattered Clouds
1:53 AM 70.0 °F - 63.0 °F 78% 29.99 in 10.0 mi South 5.8 mph - N/A   Mostly Cloudy
2:28 AM 71.1 °F - 64.0 °F 78% 30.02 in 10.0 mi South 8.1 mph - N/A Thunderstorm Mostly Cloudy
2:39 AM 70.0 °F - 64.0 °F 81% 30.01 in 10.0 mi South 9.2 mph - N/A Thunderstorm Thunderstorm
2:53 AM 70.0 °F - 64.0 °F 81% 29.98 in 10.0 mi South 5.8 mph - N/A Thunderstorm Thunderstorm
3:01 AM 70.0 °F - 64.0 °F 81% 30.00 in 10.0 mi South 8.1 mph - N/A Thunderstorm Mostly Cloudy
3:16 AM 70.0 °F - 64.0 °F 81% 30.00 in 10.0 mi South 5.8 mph - N/A   Clear
3:53 AM 69.1 °F - 66.0 °F 90% 29.96 in 10.0 mi South 5.8 mph - N/A   Partly Cloudy
4:53 AM 69.1 °F - 66.0 °F 90% 29.94 in 10.0 mi SSW 5.8 mph - N/A   Clear
5:53 AM 69.1 °F - 66.0 °F 90% 29.93 in 10.0 mi SSW 5.8 mph - N/A   Clear
6:53 AM 69.1 °F - 66.0 °F 90% 29.93 in 10.0 mi South 8.1 mph - N/A   Scattered Clouds
7:53 AM 70.0 °F - 66.0 °F 87% 29.94 in 10.0 mi SW 8.1 mph - 0.00 in   Mostly Cloudy
8:53 AM 70.0 °F - 66.9 °F 90% 29.93 in 10.0 mi SSW 8.1 mph - 0.01 in   Mostly Cloudy
9:53 AM 71.1 °F - 66.9 °F 87% 29.93 in 10.0 mi SW 8.1 mph - N/A   Scattered Clouds
10:53 AM 71.1 °F - 66.9 °F 87% 29.93 in 10.0 mi Variable 3.5 mph - 0.00 in   Overcast
11:04 AM 71.1 °F - 68.0 °F 90% 29.95 in 10.0 mi SSW 9.2 mph - N/A   Overcast
11:30 AM 73.0 °F - 66.9 °F 81% 29.95 in 10.0 mi SSW 9.2 mph - N/A   Overcast
11:53 AM 73.0 °F - 66.9 °F 81% 29.91 in 10.0 mi SW 11.5 mph 18.4 mph N/A   Overcast
12:53 PM 73.9 °F - 66.0 °F 76% 29.88 in 10.0 mi SW 9.2 mph - 0.00 in Rain Light Rain
1:08 PM 75.9 °F - 66.9 °F 74% 29.91 in 10.0 mi SW 8.1 mph - 0.00 in   Mostly Cloudy
1:53 PM 78.1 °F - 66.9 °F 68% 29.88 in 10.0 mi SW 11.5 mph - 0.00 in   Scattered Clouds
2:53 PM 77.0 °F - 64.0 °F 64% 29.87 in 10.0 mi WSW 12.7 mph - N/A   Mostly Cloudy
3:53 PM 80.1 °F 82.1 °F 66.0 °F 62% 29.87 in 10.0 mi West 10.4 mph - N/A   Mostly Cloudy
4:53 PM 81.0 °F 82.7 °F 64.9 °F 58% 29.86 in 10.0 mi West 10.4 mph - N/A   Clear
5:53 PM 80.1 °F 81.9 °F 64.9 °F 60% 29.86 in 10.0 mi West 8.1 mph - N/A   Clear
6:53 PM 79.0 °F - 64.9 °F 62% 29.86 in 10.0 mi WSW 3.5 mph - N/A   Mostly Cloudy
7:53 PM 75.9 °F - 64.9 °F 69% 29.86 in 10.0 mi Calm Calm - N/A   Partly Cloudy
8:53 PM 75.0 °F - 64.0 °F 69% 29.86 in 10.0 mi Calm Calm - N/A   Clear
9:53 PM 73.0 °F - 66.0 °F 79% 29.88 in 10.0 mi SW 6.9 mph - N/A   Partly Cloudy
10:53 PM 72.0 °F - 66.0 °F 81% 29.88 in 10.0 mi SW 6.9 mph - N/A   Partly Cloudy
11:53 PM 71.1 °F - 66.9 °F 87% 29.87 in 10.0 mi West 5.8 mph - 0.00 in   Overcast